| time (UTC) | temp F | wind direction | speed MPH | gust MPH | rain 1hr in | rain 24hr in | rain mn in | humidity % | barometer mb |
| 20260904071601 | 63 | 251 | 3.0 | 8.0 | 0.00 | 0.03 | 0.02 | 57 | 1018.9 |
| 20260904064620 | 63 | 171 | 3.0 | 6.0 | 0.00 | 0.03 | 0.02 | 59 | 1018.6 |
| 20260904063102 | 63 | 227 | 2.0 | 9.0 | 0.00 | 0.03 | 0.02 | 59 | 1018.5 |
| 20260904061600 | 63 | 254 | 2.0 | 9.0 | 0.00 | 0.03 | 0.02 | 59 | 1018.5 |
| 20260904054603 | 63 | 262 | 1.0 | 9.0 | 0.00 | 0.03 | 0.02 | 63 | 1018.4 |
| 20260904053110 | 63 | 149 | 1.0 | 8.0 | 0.00 | 0.03 | 0.02 | 64 | 1018.4 |
| 20260904051609 | 65 | 263 | 1.0 | 10.0 | 0.00 | 0.03 | 0.02 | 64 | 1018.4 |
| 20260904050146 | 63 | 238 | 1.0 | 7.0 | 0.00 | 0.03 | 0.02 | 68 | 1018.5 |
| 20260904044602 | 63 | 229 | 3.0 | 10.0 | 0.00 | 0.05 | 0.02 | 71 | 1018.8 |
| 20260904043104 | 62 | 219 | 3.0 | 11.0 | 0.00 | 0.05 | 0.02 | 70 | 1018.6 |
| 20260904041612 | 64 | 221 | 2.0 | 12.0 | 0.00 | 0.05 | 0.02 | 68 | 1018.5 |
| 20260904040105 | 64 | 350 | 2.0 | 7.0 | 0.00 | 0.05 | 0.02 | 71 | 1018.6 |
| 20260904034614 | 63 | 242 | 2.0 | 11.0 | 0.00 | 0.06 | 0.02 | 72 | 1018.5 |
| 20260904033105 | 63 | 240 | 5.0 | 12.0 | 0.00 | 0.06 | 0.02 | 69 | 1018.6 |
| 20260904031604 | 65 | 0 | 3.0 | 12.0 | 0.00 | 0.06 | 0.02 | 60 | 1018.3 |
| 20260904030103 | 65 | 216 | 4.0 | 9.0 | 0.00 | 0.06 | 0.02 | 52 | 1018.1 |
| 20260904024607 | 65 | 290 | 4.0 | 10.0 | 0.00 | 0.06 | 0.02 | 55 | 1017.9 |
| 20260904023100 | 64 | 248 | 6.0 | 10.0 | 0.00 | 0.06 | 0.02 | 55 | 1017.9 |
| 20260904021559 | 63 | 265 | 2.0 | 12.0 | 0.00 | 0.06 | 0.02 | 59 | 1018.0 |
| 20260904014634 | 64 | 266 | 4.0 | 12.0 | 0.00 | 0.06 | 0.02 | 56 | 1017.9 |
| 20260904013103 | 63 | 292 | 3.0 | 13.0 | 0.00 | 0.06 | 0.02 | 56 | 1017.9 |
| 20260904011609 | 62 | 259 | 4.0 | 12.0 | 0.00 | 0.06 | 0.02 | 60 | 1017.6 |
| 20260904004604 | 62 | 248 | 4.0 | 10.0 | 0.00 | 0.06 | 0.02 | 64 | 1017.1 |
| 20260904003103 | 62 | 262 | 2.0 | 10.0 | 0.00 | 0.06 | 0.02 | 65 | 1016.5 |
| 20260904001559 | 61 | 255 | 4.0 | 10.0 | 0.00 | 0.06 | 0.02 | 68 | 1016.2 |
| 20260904000100 | 60 | 229 | 2.0 | 10.0 | 0.00 | 0.06 | 0.02 | 73 | 1016.0 |
| 20260903234601 | 59 | 250 | 1.0 | 5.0 | 0.00 | 0.06 | 0.02 | 78 | 1015.7 |
| 20260903233101 | 59 | 266 | 3.0 | 11.0 | 0.00 | 0.06 | 0.02 | 77 | 1015.9 |
| 20260903231612 | 59 | 242 | 4.0 | 9.0 | 0.00 | 0.06 | 0.02 | 71 | 1015.7 |
| 20260903230114 | 58 | 265 | 2.0 | 6.0 | 0.00 | 0.06 | 0.02 | 78 | 1015.2 |
| 20260903224603 | 58 | 245 | 1.0 | 6.0 | 0.00 | 0.07 | 0.02 | 77 | 1014.9 |
| 20260903223113 | 59 | 267 | 3.0 | 11.0 | 0.00 | 0.07 | 0.02 | 75 | 1014.8 |
| 20260903221604 | 59 | 239 | 3.0 | 8.0 | 0.00 | 0.07 | 0.02 | 74 | 1014.7 |
| 20260903220108 | 59 | 253 | 5.0 | 12.0 | 0.00 | 0.07 | 0.02 | 66 | 1014.6 |
| 20260903214559 | 59 | 291 | 4.0 | 11.0 | 0.00 | 0.07 | 0.02 | 68 | 1014.3 |
| 20260903213103 | 59 | 266 | 5.0 | 13.0 | 0.00 | 0.07 | 0.02 | 70 | 1014.1 |
| 20260903211616 | 59 | 225 | 3.0 | 13.0 | 0.00 | 0.07 | 0.02 | 73 | 1013.9 |
| 20260903204605 | 59 | 241 | 3.0 | 14.0 | 0.00 | 0.07 | 0.02 | 83 | 1013.6 |
| 20260903203105 | 58 | 276 | 4.0 | 11.0 | 0.00 | 0.07 | 0.02 | 85 | 1013.4 |
| 20260903201606 | 58 | 270 | 4.0 | 12.0 | 0.00 | 0.07 | 0.02 | 86 | 1013.2 |
| 20260903200112 | 58 | 278 | 5.0 | 15.0 | 0.00 | 0.07 | 0.02 | 86 | 1013.3 |
| 20260903194602 | 58 | 257 | 3.0 | 9.0 | 0.00 | 0.07 | 0.02 | 85 | 1013.0 |
| 20260903193105 | 58 | 245 | 3.0 | 18.0 | 0.00 | 0.07 | 0.02 | 81 | 1013.1 |
| 20260903191609 | 61 | 65 | 6.0 | 16.0 | 0.00 | 0.07 | 0.02 | 74 | 1013.3 |
| 20260903190105 | 61 | 308 | 3.0 | 10.0 | 0.00 | 0.07 | 0.02 | 72 | 1012.8 |
| 20260903184604 | 61 | 315 | 3.0 | 10.0 | 0.00 | 0.11 | 0.02 | 72 | 1012.8 |
| 20260903183121 | 61 | 291 | 3.0 | 11.0 | 0.00 | 0.11 | 0.02 | 72 | 1013.0 |
| 20260903181639 | 61 | 289 | 3.0 | 11.0 | 0.00 | 0.11 | 0.02 | 70 | 1013.1 |
| 20260903174604 | 60 | 270 | 4.0 | 12.0 | 0.00 | 0.11 | 0.02 | 71 | 1013.0 |
| 20260903173111 | 60 | 313 | 3.0 | 11.0 | 0.00 | 0.11 | 0.02 | 76 | 1013.1 |
| 20260903171607 | 60 | 243 | 4.0 | 14.0 | 0.00 | 0.11 | 0.02 | 80 | 1013.3 |
| 20260903164605 | 58 | 236 | 4.0 | 14.0 | 0.03 | 0.11 | 0.02 | 87 | 1013.5 |
| 20260903163100 | 58 | 279 | 2.0 | 7.0 | 0.03 | 0.11 | 0.02 | 88 | 1013.5 |
| 20260903161617 | 58 | 265 | 3.0 | 10.0 | 0.02 | 0.10 | 0.01 | 87 | 1013.7 |
| 20260903160101 | 58 | 0 | 0.0 | 4.0 | 0.00 | 0.08 | 0.00 | 86 | 1013.7 |
| 20260903154600 | 58 | 347 | 2.0 | 8.0 | 0.00 | 0.07 | 0.07 | 83 | 1013.8 |
| 20260903153101 | 61 | 268 | 3.0 | 9.0 | 0.00 | 0.07 | 0.07 | 76 | 1014.1 |
| 20260903151614 | 60 | 246 | 2.0 | 10.0 | 0.00 | 0.07 | 0.07 | 74 | 1013.9 |
| 20260903144602 | 61 | 250 | 3.0 | 10.0 | 0.00 | 0.07 | 0.07 | 69 | 1014.3 |
| 20260903143103 | 61 | 0 | 1.0 | 11.0 | 0.00 | 0.07 | 0.07 | 65 | 1014.4 |
| 20260903141605 | 61 | 263 | 1.0 | 7.0 | 0.00 | 0.07 | 0.07 | 70 | 1014.5 |
| 20260903140104 | 61 | 306 | 2.0 | 8.0 | 0.00 | 0.07 | 0.07 | 68 | 1014.6 |
| 20260903134609 | 61 | 300 | 2.0 | 11.0 | 0.00 | 0.08 | 0.07 | 69 | 1014.9 |
| 20260903133106 | 61 | 290 | 4.0 | 13.0 | 0.00 | 0.08 | 0.07 | 70 | 1015.0 |
| 20260903131604 | 61 | 324 | 1.0 | 7.0 | 0.00 | 0.08 | 0.07 | 70 | 1015.1 |
| 20260903130109 | 61 | 265 | 1.0 | 10.0 | 0.00 | 0.08 | 0.07 | 68 | 1015.0 |
| 20260903124606 | 61 | 269 | 1.0 | 11.0 | 0.00 | 0.08 | 0.07 | 67 | 1015.4 |
| 20260903123105 | 61 | 267 | 3.0 | 12.0 | 0.00 | 0.08 | 0.07 | 68 | 1015.4 |
| 20260903121601 | 61 | 296 | 5.0 | 11.0 | 0.00 | 0.08 | 0.07 | 71 | 1015.4 |
| 20260903120103 | 61 | 296 | 2.0 | 10.0 | 0.00 | 0.08 | 0.07 | 70 | 1015.4 |
| 20260903114602 | 61 | 350 | 2.0 | 12.0 | 0.00 | 0.16 | 0.07 | 76 | 1015.5 |
| 20260903113102 | 61 | 265 | 3.0 | 10.0 | 0.00 | 0.16 | 0.07 | 79 | 1015.3 |
| 20260903111602 | 61 | 309 | 1.0 | 8.0 | 0.00 | 0.16 | 0.07 | 81 | 1015.1 |
| 20260903104605 | 59 | 0 | 1.0 | 7.0 | 0.00 | 0.24 | 0.07 | 87 | 1014.9 |
| 20260903103101 | 59 | 234 | 1.0 | 7.0 | 0.00 | 0.24 | 0.07 | 86 | 1014.9 |
| 20260903101607 | 60 | 328 | 1.0 | 9.0 | 0.00 | 0.24 | 0.07 | 86 | 1014.8 |
| 20260903094611 | 61 | 315 | 1.0 | 9.0 | 0.00 | 0.24 | 0.07 | 82 | 1014.5 |
| 20260903093107 | 62 | 299 | 0.0 | 6.0 | 0.00 | 0.24 | 0.07 | 80 | 1014.6 |
| 20260903091609 | 62 | 329 | 4.0 | 10.0 | 0.00 | 0.24 | 0.07 | 79 | 1014.5 |
| 20260903090106 | 62 | 284 | 2.0 | 8.0 | 0.00 | 0.24 | 0.07 | 82 | 1014.4 |
| 20260903084618 | 62 | 281 | 2.0 | 7.0 | 0.00 | 0.24 | 0.07 | 82 | 1014.5 |
| 20260903083107 | 62 | 317 | 1.0 | 8.0 | 0.00 | 0.24 | 0.07 | 83 | 1014.4 |
| 20260903081602 | 64 | 355 | 2.0 | 7.0 | 0.00 | 0.24 | 0.07 | 77 | 1014.5 |
| 20260903080106 | 64 | 292 | 2.0 | 9.0 | 0.00 | 0.24 | 0.07 | 77 | 1014.5 |
| 20260903074600 | 65 | 257 | 6.0 | 13.0 | 0.00 | 0.24 | 0.07 | 75 | 1014.6 |
| 20260903073115 | 66 | 315 | 2.0 | 8.0 | 0.00 | 0.24 | 0.07 | 71 | 1014.7 |